Precipitable_Water
0.28 0.22 0.23 0.26 0.27 0.27 0.28 0.27 0.26 0.25 0.25 0.24 0.23 0.21 0.21 0.22 0.22 0.22 0.24 0.24 0.23 0.21 0.23 0.25 0.25 0.25 0.25 0.26 0.31 0.35 0.36 0.36 0.36 0.38 0.40 0.42 0.44 0.45 0.45 0.46 0.49 0.51 0.56 0.64 0.67 0.68 0.67 0.65 0.65 0.64 0.63 0.63 0.63 0.65 0.65 0.64 0.68 0.67 0.72 0.80 0.87 1.04 1.10 1.07 1.12 1.15 1.18 1.23 1.28 1.35 1.32 1.30 1.32 1.28 1.30 1.33 1.39 1.41 1.36 1.35 1.36 1.37 1.36 1.35 1.37 1.39
0.27 0.21 0.23 0.29 0.31 0.29 0.28 0.27 0.24 0.22 0.23 0.21 0.22 0.22 0.21 0.22 0.21 0.25 0.26 0.28 0.28 0.23 0.27 0.29 0.26 0.27 0.29 0.30 0.33 0.37 0.35 0.37 0.40 0.41 0.43 0.44 0.46 0.47 0.48 0.48 0.50 0.52 0.57 0.63 0.66 0.67 0.66 0.67 0.68 0.69 0.68 0.65 0.59 0.62 0.62 0.62 0.63 0.64 0.67 0.69 0.80 0.97 1.12 1.13 1.10 1.13 1.20 1.23 1.25 1.30 1.39 1.44 1.44 1.40 1.34 1.28 1.32 1.38 1.42 1.41 1.39 1.39 1.40 1.40 1.40 1.41
0.24 0.21 0.28 0.33 0.31 0.30 0.28 0.24 0.25 0.23 0.21 0.22 0.21 0.22 0.20 0.20 0.24 0.28 0.29 0.32 0.33 0.28 0.29 0.30 0.27 0.31 0.33 0.34 0.36 0.37 0.38 0.42 0.45 0.45 0.46 0.46 0.47 0.48 0.49 0.50 0.52 0.53 0.54 0.60 0.62 0.63 0.64 0.66 0.67 0.68 0.68 0.69 0.69 0.64 0.63 0.63 0.64 0.64 0.64 0.66 0.72 0.86 1.03 1.19 1.20 1.18 1.19 1.27 1.33 1.38 1.40 1.40 1.41 1.52 1.49 1.43 1.38 1.38 1.40 1.44 1.46 1.45 1.42 1.40 1.39 1.44
0.21 0.26 0.33 0.37 0.34 0.30 0.24 0.26 0.27 0.27 0.26 0.24 0.23 0.21 0.19 0.22 0.19 0.22 0.29 0.33 0.33 0.31 0.30 0.32 0.29 0.33 0.38 0.39 0.39 0.42 0.42 0.43 0.46 0.48 0.48 0.49 0.48 0.48 0.49 0.50 0.51 0.51 0.53 0.55 0.57 0.60 0.63 0.65 0.66 0.66 0.66 0.68 0.69 0.69 0.68 0.65 0.63 0.64 0.67 0.67 0.66 0.74 0.90 1.06 1.25 1.26 1.29 1.29 1.37 1.42 1.38 1.45 1.49 1.48 1.52 1.51 1.48 1.41 1.39 1.36 1.40 1.43 1.42 1.42 1.44 1.49
0.27 0.31 0.38 0.37 0.36 0.28 0.24 0.27 0.29 0.27 0.27 0.29 0.29 0.28 0.28 0.27 0.28 0.27 0.30 0.36 0.37 0.38 0.38 0.34 0.31 0.32 0.37 0.37 0.40 0.45 0.49 0.47 0.48 0.48 0.49 0.51 0.52 0.54 0.55 0.55 0.55 0.53 0.54 0.55 0.56 0.59 0.61 0.62 0.64 0.66 0.69 0.71 0.68 0.66 0.65 0.64 0.66 0.66 0.65 0.68 0.67 0.67 0.79 0.95 1.11 1.23 1.30 1.30 1.26 1.31 1.37 1.40 1.40 1.51 1.54 1.47 1.42 1.36 1.36 1.37 1.39 1.42 1.48 1.47 1.49 1.51
0.30 0.35 0.37 0.32 0.28 0.26 0.26 0.27 0.31 0.29 0.25 0.27 0.30 0.30 0.31 0.32 0.32 0.34 0.34 0.33 0.31 0.31 0.36 0.33 0.24 0.26 0.35 0.37 0.39 0.44 0.45 0.46 0.51 0.49 0.49 0.50 0.52 0.53 0.52 0.53 0.56 0.57 0.58 0.57 0.57 0.58 0.60 0.61 0.63 0.65 0.67 0.70 0.70 0.69 0.69 0.68 0.66 0.64 0.62 0.63 0.65 0.63 0.72 0.84 1.01 1.16 1.21 1.20 1.16 1.21 1.26 1.27 1.28 1.19 1.36 1.45 1.39 1.30 1.29 1.31 1.41 1.48 1.53 1.54 1.53 1.52
0.32 0.38 0.38 0.34 0.30 0.29 0.31 0.32 0.35 0.33 0.27 0.22 0.28 0.35 0.36 0.33 0.32 0.33 0.32 0.30 0.25 0.23 0.34 0.39 0.25 0.24 0.35 0.35 0.39 0.43 0.43 0.45 0.49 0.50 0.51 0.52 0.52 0.53 0.53 0.53 0.54 0.56 0.56 0.57 0.56 0.57 0.57 0.59 0.60 0.62 0.63 0.65 0.66 0.67 0.70 0.69 0.69 0.67 0.63 0.61 0.62 0.61 0.65 0.76 0.92 1.05 1.08 1.09 1.17 1.19 1.23 1.22 1.19 1.23 1.29 1.44 1.50 1.44 1.46 1.48 1.41 1.46 1.53 1.58 1.55 1.53
0.33 0.36 0.33 0.32 0.30 0.30 0.32 0.32 0.34 0.32 0.26 0.23 0.34 0.36 0.35 0.34 0.33 0.33 0.32 0.31 0.31 0.37 0.38 0.38 0.33 0.27 0.28 0.35 0.43 0.44 0.43 0.44 0.45 0.48 0.50 0.51 0.53 0.53 0.53 0.53 0.56 0.56 0.54 0.51 0.52 0.53 0.56 0.57 0.57 0.57 0.60 0.62 0.64 0.66 0.69 0.69 0.69 0.67 0.64 0.61 0.57 0.58 0.61 0.70 0.83 0.96 1.04 1.04 1.07 1.05 1.05 1.13 1.16 1.13 1.14 1.28 1.38 1.43 1.44 1.45 1.44 1.46 1.49 1.53 1.53 1.54
0.32 0.34 0.32 0.29 0.29 0.30 0.32 0.35 0.36 0.33 0.27 0.29 0.34 0.35 0.33 0.34 0.37 0.36 0.35 0.35 0.35 0.33 0.29 0.34 0.38 0.29 0.30 0.37 0.43 0.44 0.38 0.41 0.42 0.45 0.48 0.50 0.52 0.53 0.51 0.50 0.51 0.51 0.49 0.49 0.50 0.52 0.54 0.55 0.56 0.57 0.57 0.60 0.62 0.64 0.65 0.67 0.68 0.68 0.68 0.65 0.60 0.57 0.57 0.61 0.74 0.83 0.95 1.04 1.02 1.00 0.99 0.96 1.06 1.12 1.22 1.28 1.30 1.29 1.33 1.32 1.37 1.34 1.38 1.44 1.48 1.52
0.36 0.36 0.36 0.33 0.28 0.29 0.33 0.36 0.37 0.33 0.28 0.34 0.37 0.37 0.37 0.38 0.38 0.38 0.36 0.38 0.37 0.31 0.27 0.32 0.37 0.28 0.27 0.34 0.36 0.41 0.38 0.37 0.41 0.45 0.47 0.49 0.50 0.51 0.50 0.49 0.48 0.47 0.47 0.49 0.51 0.54 0.55 0.55 0.55 0.56 0.56 0.56 0.57 0.58 0.60 0.63 0.66 0.67 0.68 0.67 0.64 0.59 0.58 0.59 0.62 0.71 0.82 0.96 0.99 1.07 1.02 0.99 0.99 1.06 1.16 1.25 1.27 1.29 1.31 1.27 1.27 1.28 1.32 1.38 1.42 1.46
0.41 0.41 0.37 0.27 0.27 0.30 0.31 0.34 0.35 0.35 0.36 0.38 0.36 0.34 0.35 0.36 0.36 0.37 0.37 0.36 0.33 0.26 0.29 0.35 0.37 0.32 0.24 0.30 0.33 0.33 0.35 0.40 0.43 0.45 0.48 0.49 0.48 0.48 0.48 0.45 0.45 0.47 0.47 0.48 0.50 0.52 0.55 0.57 0.56 0.55 0.52 0.52 0.52 0.53 0.54 0.55 0.58 0.63 0.65 0.66 0.65 0.64 0.62 0.61 0.60 0.62 0.67 0.82 0.90 0.94 0.97 0.99 1.00 1.06 1.13 1.18 1.19 1.25 1.27 1.25 1.26 1.25 1.27 1.34 1.38 1.43
0.37 0.35 0.33 0.36 0.38 0.36 0.34 0.32 0.35 0.37 0.37 0.35 0.32 0.32 0.31 0.32 0.35 0.32 0.33 0.35 0.25 0.23 0.29 0.36 0.35 0.34 0.21 0.27 0.35 0.41 0.45 0.46 0.45 0.43 0.43 0.43 0.44 0.45 0.45 0.46 0.45 0.43 0.43 0.47 0.49 0.50 0.52 0.53 0.55 0.54 0.50 0.50 0.49 0.50 0.49 0.49 0.52 0.55 0.61 0.64 0.64 0.65 0.65 0.63 0.60 0.60 0.62 0.69 0.78 0.83 0.89 0.93 0.99 1.06 1.13 1.16 1.20 1.20 1.18 1.20 1.20 1.26 1.28 1.29 1.34 1.39
0.32 0.31 0.38 0.38 0.39 0.37 0.32 0.29 0.30 0.33 0.35 0.34 0.32 0.31 0.24 0.23 0.24 0.21 0.25 0.21 0.23 0.22 0.29 0.35 0.36 0.29 0.27 0.32 0.38 0.42 0.45 0.46 0.47 0.45 0.43 0.43 0.43 0.44 0.44 0.44 0.44 0.44 0.44 0.45 0.47 0.48 0.49 0.49 0.50 0.50 0.50 0.48 0.48 0.51 0.52 0.52 0.54 0.54 0.54 0.60 0.62 0.63 0.66 0.65 0.62 0.60 0.60 0.63 0.68 0.74 0.79 0.89 1.02 1.05 1.09 1.13 1.19 1.26 1.24 1.21 1.21 1.26 1.26 1.30 1.31 1.35
0.29 0.37 0.37 0.37 0.37 0.40 0.36 0.26 0.29 0.29 0.31 0.31 0.29 0.26 0.22 0.19 0.19 0.17 0.20 0.24 0.23 0.28 0.35 0.33 0.38 0.28 0.34 0.37 0.43 0.42 0.46 0.48 0.47 0.46 0.45 0.44 0.43 0.42 0.43 0.44 0.44 0.44 0.43 0.43 0.45 0.45 0.46 0.48 0.48 0.47 0.46 0.48 0.53 0.56 0.57 0.57 0.58 0.59 0.57 0.56 0.59 0.62 0.66 0.66 0.63 0.60 0.60 0.60 0.64 0.70 0.75 0.83 0.95 1.01 1.04 1.09 1.13 1.19 1.23 1.28 1.30 1.30 1.30 1.30 1.31 1.35
0.24 0.25 0.32 0.37 0.31 0.42 0.36 0.31 0.30 0.31 0.32 0.30 0.32 0.29 0.26 0.22 0.18 0.15 0.18 0.17 0.19 0.23 0.30 0.37 0.29 0.26 0.26 0.32 0.45 0.46 0.47 0.46 0.46 0.45 0.45 0.45 0.45 0.44 0.45 0.44 0.43 0.42 0.42 0.43 0.44 0.44 0.45 0.47 0.45 0.43 0.43 0.47 0.54 0.58 0.59 0.61 0.63 0.64 0.61 0.60 0.57 0.60 0.66 0.67 0.65 0.63 0.64 0.61 0.61 0.65 0.72 0.80 0.88 0.93 1.02 1.07 1.11 1.15 1.18 1.22 1.26 1.31 1.35 1.32 1.32 1.33
0.33 0.32 0.41 0.47 0.46 0.46 0.35 0.38 0.36 0.33 0.31 0.32 0.32 0.33 0.26 0.24 0.28 0.19 0.21 0.21 0.22 0.22 0.23 0.27 0.27 0.33 0.32 0.43 0.46 0.46 0.43 0.42 0.44 0.43 0.43 0.42 0.44 0.45 0.42 0.40 0.40 0.41 0.41 0.42 0.43 0.44 0.45 0.44 0.43 0.44 0.46 0.48 0.56 0.59 0.61 0.63 0.65 0.66 0.65 0.65 0.64 0.63 0.67 0.70 0.68 0.65 0.65 0.63 0.61 0.62 0.66 0.72 0.79 0.86 0.93 1.01 1.08 1.12 1.17 1.19 1.21 1.25 1.28 1.29 1.29 1.32
0.33 0.30 0.42 0.44 0.47 0.41 0.38 0.39 0.36 0.39 0.23 0.32 0.31 0.25 0.26 0.34 0.30 0.24 0.25 0.28 0.27 0.24 0.21 0.32 0.30 0.34 0.41 0.41 0.42 0.41 0.38 0.38 0.40 0.40 0.40 0.40 0.42 0.42 0.39 0.39 0.39 0.39 0.40 0.41 0.43 0.42 0.40 0.41 0.43 0.46 0.47 0.49 0.58 0.61 0.63 0.65 0.67 0.68 0.68 0.68 0.68 0.68 0.69 0.71 0.71 0.68 0.69 0.67 0.64 0.63 0.64 0.67 0.71 0.79 0.83 0.89 0.97 1.03 1.10 1.15 1.19 1.20 1.24 1.29 1.30 1.32
0.30 0.31 0.41 0.39 0.35 0.42 0.44 0.41 0.40 0.40 0.36 0.32 0.25 0.28 0.34 0.40 0.34 0.26 0.19 0.24 0.22 0.19 0.22 0.28 0.25 0.28 0.28 0.24 0.39 0.36 0.35 0.35 0.36 0.36 0.38 0.39 0.40 0.37 0.37 0.37 0.37 0.38 0.40 0.43 0.41 0.40 0.39 0.39 0.42 0.45 0.48 0.50 0.58 0.64 0.67 0.69 0.70 0.71 0.72 0.72 0.72 0.73 0.72 0.72 0.73 0.72 0.72 0.69 0.69 0.67 0.66 0.67 0.69 0.72 0.79 0.88 0.96 1.04 1.08 1.12 1.17 1.22 1.24 1.24 1.25 1.28
0.37 0.25 0.35 0.40 0.39 0.42 0.46 0.41 0.36 0.39 0.42 0.33 0.31 0.39 0.26 0.24 0.24 0.26 0.23 0.17 0.17 0.16 0.19 0.23 0.27 0.27 0.28 0.25 0.31 0.30 0.29 0.31 0.33 0.36 0.36 0.36 0.36 0.35 0.36 0.35 0.37 0.40 0.41 0.39 0.37 0.37 0.37 0.38 0.41 0.43 0.46 0.49 0.56 0.65 0.69 0.71 0.72 0.73 0.73 0.75 0.78 0.77 0.79 0.79 0.78 0.77 0.76 0.76 0.75 0.75 0.75 0.75 0.77 0.82 0.89 0.94 1.00 1.06 1.10 1.13 1.19 1.24 1.27 1.29 1.29 1.26
0.36 0.23 0.28 0.39 0.37 0.40 0.41 0.39 0.28 0.33 0.40 0.43 0.39 0.33 0.37 0.30 0.24 0.20 0.22 0.24 0.21 0.17 0.17 0.21 0.25 0.22 0.31 0.28 0.29 0.29 0.31 0.31 0.32 0.33 0.34 0.35 0.35 0.36 0.35 0.34 0.35 0.37 0.37 0.36 0.36 0.37 0.38 0.40 0.41 0.42 0.46 0.47 0.52 0.60 0.67 0.70 0.73 0.73 0.74 0.76 0.79 0.81 0.83 0.82 0.80 0.78 0.76 0.78 0.78 0.77 0.79 0.78 0.78 0.77 0.77 0.80 0.87 0.94 1.00 1.06 1.13 1.20 1.24 1.24 1.28 1.30
0.27 0.32 0.19 0.32 0.39 0.37 0.28 0.37 0.33 0.35 0.31 0.33 0.32 0.28 0.30 0.29 0.31 0.27 0.29 0.24 0.20 0.18 0.18 0.19 0.19 0.24 0.29 0.33 0.31 0.31 0.32 0.33 0.33 0.32 0.33 0.33 0.35 0.36 0.35 0.34 0.35 0.37 0.37 0.37 0.37 0.37 0.38 0.38 0.40 0.44 0.48 0.48 0.52 0.59 0.67 0.70 0.70 0.74 0.75 0.75 0.79 0.79 0.80 0.81 0.81 0.79 0.78 0.80 0.80 0.79 0.78 0.78 0.76 0.73 0.74 0.73 0.79 0.87 0.94 1.01 1.05 1.08 1.12 1.19 1.21 1.27
0.25 0.27 0.22 0.26 0.27 0.27 0.29 0.40 0.40 0.40 0.40 0.36 0.33 0.27 0.28 0.25 0.22 0.20 0.21 0.31 0.26 0.21 0.18 0.18 0.16 0.24 0.31 0.36 0.34 0.33 0.34 0.34 0.34 0.33 0.32 0.33 0.34 0.34 0.35 0.36 0.37 0.37 0.38 0.38 0.37 0.36 0.36 0.37 0.39 0.43 0.47 0.47 0.50 0.57 0.63 0.67 0.69 0.71 0.70 0.72 0.76 0.78 0.78 0.78 0.79 0.79 0.81 0.84 0.84 0.80 0.79 0.80 0.81 0.78 0.73 0.69 0.72 0.80 0.88 0.95 1.01 1.07 1.12 1.12 1.17 1.23
0.33 0.31 0.26 0.21 0.24 0.27 0.33 0.42 0.47 0.47 0.45 0.41 0.39 0.33 0.35 0.32 0.29 0.22 0.17 0.22 0.25 0.24 0.25 0.23 0.18 0.21 0.34 0.36 0.36 0.35 0.36 0.34 0.33 0.32 0.31 0.33 0.34 0.33 0.34 0.36 0.38 0.38 0.37 0.37 0.35 0.35 0.36 0.36 0.39 0.42 0.44 0.43 0.50 0.58 0.61 0.62 0.64 0.67 0.68 0.71 0.75 0.76 0.79 0.82 0.86 0.87 0.87 0.87 0.87 0.85 0.84 0.85 0.82 0.79 0.74 0.70 0.69 0.72 0.80 0.85 0.91 1.00 1.03 1.10 1.18 1.23
0.40 0.26 0.22 0.23 0.30 0.33 0.39 0.43 0.45 0.45 0.43 0.39 0.41 0.41 0.37 0.30 0.30 0.26 0.23 0.24 0.19 0.21 0.19 0.20 0.16 0.22 0.32 0.38 0.38 0.37 0.36 0.34 0.33 0.31 0.31 0.33 0.33 0.32 0.31 0.33 0.36 0.36 0.37 0.36 0.35 0.35 0.34 0.36 0.39 0.41 0.41 0.41 0.51 0.58 0.60 0.60 0.60 0.62 0.67 0.71 0.75 0.78 0.81 0.84 0.88 0.91 0.92 0.92 0.89 0.88 0.87 0.85 0.85 0.82 0.78 0.74 0.72 0.70 0.74 0.80 0.81 0.84 0.88 0.95 1.05 1.11
0.25 0.33 0.26 0.20 0.21 0.25 0.29 0.36 0.37 0.42 0.42 0.37 0.36 0.39 0.39 0.37 0.34 0.33 0.31 0.31 0.21 0.22 0.22 0.18 0.14 0.21 0.32 0.38 0.38 0.36 0.33 0.31 0.30 0.32 0.33 0.30 0.31 0.30 0.30 0.32 0.34 0.35 0.35 0.33 0.33 0.32 0.33 0.34 0.36 0.38 0.40 0.42 0.51 0.58 0.60 0.60 0.57 0.57 0.65 0.70 0.75 0.80 0.84 0.85 0.88 0.90 0.92 0.92 0.91 0.90 0.88 0.86 0.87 0.86 0.84 0.80 0.77 0.74 0.74 0.76 0.79 0.81 0.81 0.83 0.89 0.99
0.27 0.28 0.25 0.18 0.16 0.14 0.15 0.17 0.22 0.27 0.32 0.36 0.37 0.36 0.37 0.35 0.33 0.29 0.24 0.26 0.19 0.24 0.25 0.19 0.19 0.26 0.33 0.35 0.34 0.33 0.32 0.31 0.31 0.31 0.32 0.32 0.30 0.29 0.29 0.31 0.32 0.33 0.32 0.32 0.32 0.32 0.32 0.34 0.36 0.38 0.39 0.42 0.49 0.56 0.59 0.60 0.57 0.53 0.61 0.69 0.74 0.79 0.83 0.85 0.87 0.87 0.88 0.90 0.87 0.88 0.87 0.87 0.86 0.84 0.82 0.81 0.80 0.78 0.76 0.77 0.76 0.75 0.77 0.82 0.86 0.92
0.24 0.27 0.25 0.23 0.19 0.18 0.23 0.27 0.35 0.36 0.36 0.29 0.33 0.34 0.35 0.38 0.37 0.34 0.33 0.27 0.22 0.26 0.23 0.25 0.25 0.26 0.29 0.31 0.31 0.30 0.30 0.28 0.28 0.30 0.29 0.29 0.30 0.29 0.29 0.30 0.33 0.33 0.32 0.33 0.32 0.33 0.35 0.35 0.35 0.37 0.39 0.41 0.46 0.54 0.58 0.60 0.57 0.54 0.56 0.65 0.71 0.76 0.81 0.84 0.84 0.85 0.85 0.85 0.83 0.80 0.82 0.85 0.86 0.84 0.82 0.82 0.82 0.83 0.81 0.79 0.80 0.78 0.73 0.77 0.84 0.88
0.21 0.17 0.24 0.26 0.26 0.27 0.31 0.31 0.35 0.37 0.32 0.33 0.31 0.30 0.35 0.36 0.37 0.33 0.28 0.26 0.33 0.27 0.21 0.28 0.31 0.26 0.28 0.28 0.30 0.28 0.29 0.28 0.29 0.29 0.30 0.30 0.29 0.28 0.27 0.31 0.34 0.34 0.34 0.33 0.33 0.32 0.34 0.35 0.35 0.37 0.37 0.37 0.42 0.52 0.57 0.61 0.59 0.55 0.57 0.64 0.68 0.72 0.77 0.80 0.81 0.81 0.81 0.83 0.83 0.81 0.81 0.82 0.84 0.85 0.83 0.82 0.82 0.81 0.82 0.82 0.82 0.81 0.80 0.80 0.81 0.87
0.21 0.17 0.27 0.27 0.26 0.29 0.32 0.32 0.33 0.33 0.33 0.33 0.32 0.33 0.33 0.36 0.36 0.31 0.31 0.34 0.33 0.26 0.22 0.28 0.31 0.28 0.29 0.28 0.31 0.30 0.30 0.28 0.28 0.29 0.31 0.32 0.32 0.30 0.29 0.31 0.32 0.32 0.32 0.32 0.31 0.33 0.34 0.35 0.34 0.35 0.35 0.36 0.40 0.47 0.54 0.58 0.59 0.57 0.59 0.66 0.65 0.68 0.70 0.75 0.76 0.77 0.78 0.80 0.82 0.84 0.85 0.86 0.86 0.86 0.85 0.85 0.83 0.81 0.80 0.81 0.83 0.84 0.83 0.82 0.82 0.85
0.29 0.25 0.29 0.30 0.27 0.28 0.30 0.32 0.34 0.32 0.33 0.33 0.33 0.34 0.34 0.34 0.34 0.35 0.34 0.35 0.34 0.31 0.33 0.32 0.32 0.31 0.31 0.30 0.32 0.32 0.32 0.31 0.31 0.33 0.34 0.33 0.31 0.30 0.31 0.31 0.32 0.32 0.32 0.31 0.31 0.33 0.35 0.36 0.36 0.34 0.34 0.35 0.36 0.40 0.49 0.52 0.56 0.56 0.59 0.64 0.65 0.66 0.68 0.71 0.72 0.72 0.72 0.74 0.79 0.83 0.85 0.86 0.87 0.87 0.86 0.86 0.84 0.83 0.83 0.83 0.83 0.82 0.82 0.83 0.83 0.84
0.29 0.26 0.32 0.32 0.27 0.25 0.28 0.32 0.33 0.32 0.31 0.29 0.32 0.34 0.34 0.35 0.35 0.35 0.34 0.34 0.34 0.33 0.34 0.33 0.31 0.29 0.33 0.35 0.33 0.34 0.34 0.35 0.34 0.33 0.32 0.33 0.31 0.30 0.31 0.31 0.32 0.32 0.32 0.31 0.30 0.33 0.34 0.36 0.37 0.35 0.33 0.33 0.34 0.36 0.43 0.49 0.53 0.58 0.62 0.66 0.65 0.66 0.67 0.68 0.68 0.70 0.70 0.71 0.75 0.80 0.84 0.85 0.86 0.86 0.85 0.85 0.86 0.87 0.85 0.84 0.83 0.80 0.80 0.81 0.84 0.84
0.33 0.28 0.34 0.30 0.23 0.21 0.27 0.29 0.30 0.30 0.28 0.27 0.27 0.30 0.32 0.32 0.30 0.32 0.29 0.33 0.29 0.27 0.30 0.30 0.28 0.28 0.33 0.35 0.35 0.35 0.34 0.33 0.32 0.33 0.33 0.32 0.31 0.32 0.31 0.31 0.32 0.32 0.31 0.30 0.31 0.33 0.34 0.35 0.36 0.34 0.32 0.32 0.32 0.32 0.36 0.41 0.48 0.54 0.61 0.66 0.65 0.68 0.67 0.65 0.66 0.66 0.68 0.71 0.74 0.78 0.82 0.84 0.85 0.85 0.84 0.83 0.82 0.84 0.86 0.87 0.86 0.83 0.81 0.80 0.80 0.84
0.30 0.26 0.24 0.25 0.20 0.19 0.25 0.29 0.28 0.27 0.25 0.20 0.22 0.29 0.32 0.33 0.34 0.36 0.36 0.36 0.33 0.34 0.28 0.25 0.26 0.34 0.32 0.33 0.31 0.32 0.33 0.33 0.34 0.34 0.33 0.32 0.32 0.33 0.33 0.32 0.33 0.32 0.30 0.32 0.33 0.34 0.34 0.35 0.36 0.36 0.35 0.33 0.32 0.30 0.33 0.35 0.38 0.44 0.54 0.64 0.68 0.69 0.66 0.64 0.64 0.65 0.66 0.69 0.72 0.75 0.79 0.82 0.83 0.83 0.84 0.85 0.86 0.85 0.85 0.84 0.85 0.86 0.85 0.83 0.85 0.84
0.28 0.25 0.22 0.26 0.17 0.16 0.22 0.25 0.26 0.21 0.14 0.16 0.31 0.36 0.35 0.31 0.33 0.31 0.31 0.32 0.36 0.35 0.32 0.34 0.34 0.35 0.34 0.33 0.31 0.32 0.33 0.33 0.34 0.36 0.37 0.32 0.32 0.33 0.34 0.34 0.34 0.32 0.31 0.34 0.34 0.35 0.36 0.37 0.37 0.38 0.38 0.36 0.33 0.32 0.33 0.33 0.31 0.36 0.45 0.55 0.67 0.69 0.66 0.64 0.63 0.63 0.64 0.67 0.70 0.73 0.76 0.78 0.79 0.78 0.80 0.82 0.83 0.84 0.83 0.82 0.82 0.83 0.85 0.87 0.87 0.83
0.23 0.24 0.20 0.24 0.19 0.17 0.21 0.21 0.16 0.11 0.14 0.28 0.34 0.39 0.40 0.38 0.36 0.33 0.33 0.35 0.36 0.37 0.36 0.34 0.35 0.35 0.36 0.36 0.35 0.35 0.36 0.38 0.40 0.38 0.35 0.35 0.36 0.34 0.33 0.34 0.33 0.30 0.32 0.33 0.34 0.36 0.37 0.37 0.37 0.37 0.38 0.35 0.33 0.32 0.31 0.30 0.30 0.32 0.35 0.42 0.51 0.61 0.66 0.66 0.63 0.62 0.63 0.66 0.69 0.72 0.73 0.75 0.76 0.75 0.77 0.78 0.79 0.79 0.78 0.78 0.79 0.79 0.80 0.82 0.84 0.85
0.26 0.25 0.24 0.22 0.23 0.23 0.19 0.20 0.12 0.12 0.26 0.30 0.32 0.37 0.40 0.41 0.39 0.36 0.33 0.36 0.38 0.37 0.37 0.34 0.36 0.37 0.37 0.37 0.37 0.38 0.38 0.39 0.40 0.40 0.38 0.38 0.38 0.36 0.34 0.33 0.33 0.32 0.32 0.34 0.35 0.36 0.37 0.37 0.36 0.36 0.34 0.35 0.35 0.35 0.33 0.31 0.32 0.30 0.31 0.35 0.38 0.46 0.54 0.59 0.62 0.62 0.65 0.66 0.66 0.67 0.69 0.71 0.71 0.72 0.73 0.74 0.75 0.75 0.74 0.75 0.76 0.75 0.79 0.82 0.86 0.91
0.31 0.29 0.27 0.21 0.26 0.17 0.19 0.18 0.17 0.25 0.23 0.25 0.26 0.30 0.36 0.32 0.32 0.29 0.23 0.27 0.35 0.38 0.37 0.36 0.38 0.38 0.38 0.38 0.39 0.40 0.41 0.40 0.36 0.36 0.39 0.39 0.39 0.39 0.37 0.36 0.35 0.34 0.35 0.36 0.37 0.37 0.38 0.38 0.37 0.35 0.34 0.34 0.35 0.34 0.34 0.35 0.34 0.32 0.31 0.31 0.31 0.34 0.38 0.44 0.50 0.55 0.59 0.65 0.67 0.67 0.67 0.67 0.66 0.66 0.68 0.69 0.70 0.70 0.71 0.71 0.73 0.76 0.79 0.79 0.82 0.83
0.36 0.28 0.30 0.23 0.24 0.27 0.21 0.18 0.19 0.18 0.14 0.17 0.27 0.33 0.40 0.41 0.40 0.40 0.32 0.26 0.34 0.37 0.40 0.38 0.36 0.37 0.37 0.38 0.40 0.40 0.41 0.35 0.31 0.32 0.38 0.39 0.40 0.39 0.40 0.39 0.39 0.37 0.36 0.36 0.37 0.38 0.37 0.37 0.37 0.35 0.33 0.33 0.32 0.33 0.35 0.35 0.35 0.35 0.33 0.31 0.31 0.29 0.28 0.30 0.34 0.42 0.50 0.56 0.61 0.64 0.65 0.66 0.67 0.67 0.68 0.69 0.68 0.69 0.71 0.72 0.74 0.74 0.77 0.76 0.76 0.79
0.39 0.38 0.35 0.28 0.25 0.26 0.23 0.18 0.17 0.14 0.16 0.24 0.26 0.32 0.39 0.42 0.42 0.42 0.32 0.23 0.35 0.38 0.40 0.39 0.38 0.39 0.39 0.38 0.39 0.40 0.36 0.30 0.29 0.31 0.38 0.40 0.39 0.39 0.37 0.38 0.38 0.36 0.36 0.36 0.36 0.35 0.35 0.36 0.35 0.33 0.33 0.32 0.31 0.33 0.34 0.35 0.36 0.34 0.33 0.33 0.32 0.31 0.30 0.29 0.29 0.31 0.34 0.42 0.50 0.55 0.58 0.62 0.64 0.66 0.68 0.70 0.71 0.72 0.72 0.73 0.75 0.76 0.77 0.77 0.75 0.75
0.35 0.35 0.34 0.30 0.27 0.27 0.26 0.22 0.19 0.23 0.20 0.28 0.31 0.34 0.40 0.44 0.45 0.37 0.20 0.20 0.34 0.39 0.40 0.40 0.39 0.39 0.40 0.40 0.40 0.38 0.35 0.30 0.29 0.33 0.41 0.41 0.40 0.40 0.39 0.37 0.36 0.34 0.35 0.36 0.37 0.37 0.37 0.37 0.33 0.30 0.30 0.30 0.31 0.33 0.32 0.34 0.34 0.32 0.32 0.31 0.31 0.31 0.32 0.33 0.34 0.36 0.38 0.40 0.42 0.43 0.45 0.50 0.55 0.59 0.64 0.69 0.73 0.74 0.74 0.75 0.75 0.74 0.74 0.75 0.74 0.73
0.32 0.33 0.34 0.28 0.29 0.29 0.28 0.27 0.28 0.28 0.33 0.35 0.36 0.41 0.45 0.48 0.41 0.25 0.18 0.27 0.39 0.40 0.42 0.42 0.41 0.42 0.42 0.40 0.41 0.37 0.40 0.40 0.41 0.44 0.45 0.44 0.40 0.40 0.41 0.41 0.37 0.35 0.34 0.34 0.34 0.37 0.36 0.34 0.31 0.30 0.30 0.31 0.32 0.32 0.32 0.33 0.31 0.29 0.30 0.29 0.30 0.30 0.33 0.36 0.37 0.38 0.39 0.41 0.42 0.41 0.41 0.44 0.46 0.50 0.54 0.60 0.66 0.72 0.75 0.75 0.73 0.72 0.71 0.69 0.68 0.68
0.33 0.34 0.35 0.35 0.30 0.28 0.30 0.27 0.26 0.29 0.36 0.41 0.45 0.46 0.50 0.40 0.26 0.22 0.34 0.42 0.40 0.40 0.43 0.43 0.42 0.43 0.43 0.42 0.41 0.41 0.44 0.47 0.48 0.48 0.45 0.41 0.39 0.40 0.41 0.39 0.36 0.36 0.37 0.36 0.35 0.35 0.33 0.30 0.29 0.30 0.30 0.31 0.31 0.30 0.32 0.31 0.29 0.30 0.29 0.30 0.30 0.32 0.35 0.37 0.38 0.38 0.38 0.39 0.40 0.40 0.40 0.42 0.44 0.46 0.48 0.51 0.56 0.61 0.67 0.71 0.72 0.71 0.70 0.67 0.64 0.62
0.32 0.30 0.28 0.29 0.33 0.34 0.32 0.28 0.26 0.21 0.34 0.44 0.46 0.46 0.49 0.33 0.33 0.40 0.42 0.43 0.44 0.44 0.44 0.45 0.44 0.45 0.44 0.42 0.44 0.44 0.45 0.47 0.47 0.46 0.43 0.41 0.40 0.40 0.39 0.35 0.34 0.34 0.34 0.34 0.33 0.34 0.31 0.27 0.28 0.28 0.30 0.31 0.30 0.31 0.32 0.32 0.30 0.30 0.29 0.30 0.32 0.34 0.36 0.37 0.37 0.37 0.38 0.38 0.37 0.37 0.38 0.39 0.41 0.44 0.46 0.47 0.48 0.50 0.53 0.60 0.64 0.67 0.67 0.65 0.62 0.60
0.41 0.30 0.30 0.32 0.36 0.26 0.26 0.24 0.24 0.31 0.38 0.48 0.44 0.35 0.43 0.44 0.47 0.47 0.45 0.42 0.47 0.47 0.45 0.46 0.46 0.47 0.47 0.45 0.45 0.45 0.46 0.46 0.47 0.47 0.44 0.41 0.41 0.42 0.39 0.36 0.36 0.36 0.36 0.35 0.34 0.33 0.29 0.28 0.27 0.28 0.30 0.30 0.30 0.33 0.34 0.34 0.32 0.30 0.28 0.30 0.35 0.36 0.36 0.36 0.37 0.37 0.37 0.36 0.36 0.37 0.38 0.39 0.40 0.42 0.44 0.46 0.48 0.48 0.48 0.50 0.55 0.58 0.60 0.59 0.57 0.56
0.39 0.34 0.36 0.29 0.37 0.31 0.28 0.31 0.36 0.41 0.44 0.48 0.46 0.45 0.47 0.50 0.51 0.50 0.48 0.46 0.45 0.47 0.50 0.48 0.47 0.49 0.49 0.48 0.47 0.47 0.46 0.47 0.47 0.47 0.42 0.41 0.41 0.40 0.37 0.36 0.36 0.36 0.35 0.34 0.33 0.33 0.30 0.28 0.27 0.29 0.30 0.30 0.30 0.34 0.36 0.36 0.33 0.32 0.29 0.32 0.36 0.35 0.35 0.36 0.37 0.37 0.36 0.35 0.36 0.36 0.38 0.39 0.40 0.41 0.41 0.42 0.42 0.42 0.43 0.45 0.48 0.48 0.51 0.52 0.51 0.51
0.42 0.43 0.44 0.38 0.35 0.41 0.42 0.42 0.43 0.45 0.46 0.47 0.48 0.49 0.49 0.51 0.53 0.52 0.49 0.47 0.49 0.51 0.51 0.49 0.50 0.50 0.50 0.51 0.48 0.48 0.47 0.48 0.48 0.48 0.43 0.42 0.41 0.40 0.39 0.38 0.38 0.38 0.37 0.35 0.34 0.33 0.31 0.30 0.29 0.29 0.29 0.30 0.31 0.34 0.37 0.37 0.35 0.32 0.31 0.34 0.37 0.38 0.37 0.37 0.37 0.36 0.35 0.36 0.36 0.36 0.37 0.37 0.39 0.40 0.41 0.42 0.42 0.42 0.42 0.41 0.41 0.42 0.44 0.45 0.47 0.49
0.43 0.44 0.41 0.35 0.40 0.34 0.29 0.40 0.39 0.40 0.44 0.47 0.47 0.51 0.54 0.53 0.51 0.51 0.50 0.50 0.51 0.53 0.53 0.54 0.53 0.52 0.52 0.52 0.49 0.48 0.48 0.49 0.49 0.47 0.44 0.43 0.42 0.40 0.38 0.37 0.37 0.37 0.35 0.33 0.33 0.33 0.31 0.30 0.28 0.29 0.30 0.28 0.31 0.35 0.36 0.36 0.36 0.35 0.34 0.35 0.38 0.39 0.38 0.38 0.38 0.36 0.35 0.35 0.36 0.36 0.36 0.35 0.35 0.37 0.40 0.40 0.41 0.43 0.44 0.45 0.44 0.43 0.43 0.43 0.43 0.44
0.36 0.49 0.39 0.38 0.37 0.33 0.33 0.39 0.42 0.44 0.45 0.48 0.50 0.49 0.49 0.52 0.53 0.55 0.55 0.55 0.56 0.58 0.57 0.56 0.55 0.53 0.54 0.51 0.52 0.51 0.50 0.51 0.50 0.49 0.47 0.45 0.45 0.42 0.39 0.38 0.38 0.37 0.36 0.36 0.35 0.34 0.32 0.30 0.28 0.30 0.30 0.29 0.31 0.34 0.36 0.37 0.36 0.35 0.35 0.36 0.37 0.38 0.38 0.38 0.38 0.37 0.36 0.35 0.35 0.36 0.37 0.36 0.35 0.34 0.35 0.37 0.39 0.38 0.40 0.42 0.44 0.44 0.42 0.41 0.41 0.41
0.44 0.46 0.35 0.39 0.35 0.38 0.42 0.43 0.45 0.45 0.44 0.46 0.50 0.53 0.53 0.55 0.55 0.56 0.58 0.58 0.59 0.58 0.58 0.58 0.58 0.56 0.55 0.54 0.55 0.53 0.50 0.51 0.51 0.51 0.49 0.47 0.47 0.45 0.41 0.39 0.39 0.38 0.37 0.35 0.35 0.34 0.32 0.32 0.30 0.31 0.32 0.31 0.32 0.34 0.36 0.36 0.36 0.36 0.35 0.37 0.37 0.38 0.37 0.37 0.38 0.39 0.38 0.37 0.36 0.34 0.35 0.37 0.37 0.36 0.35 0.35 0.36 0.38 0.40 0.40 0.41 0.42 0.44 0.46 0.46 0.44
0.43 0.36 0.40 0.39 0.33 0.32 0.33 0.38 0.43 0.36 0.36 0.44 0.47 0.49 0.51 0.53 0.56 0.57 0.59 0.59 0.60 0.59 0.58 0.57 0.57 0.58 0.58 0.58 0.57 0.56 0.54 0.53 0.53 0.52 0.49 0.49 0.48 0.47 0.44 0.40 0.40 0.40 0.38 0.37 0.37 0.36 0.35 0.34 0.32 0.33 0.33 0.34 0.34 0.35 0.35 0.36 0.36 0.36 0.35 0.38 0.37 0.37 0.37 0.37 0.38 0.38 0.38 0.38 0.37 0.36 0.35 0.34 0.35 0.37 0.37 0.37 0.36 0.36 0.38 0.42 0.42 0.42 0.41 0.42 0.45 0.45
0.40 0.39 0.39 0.34 0.33 0.32 0.40 0.44 0.46 0.46 0.45 0.47 0.48 0.51 0.52 0.54 0.55 0.55 0.56 0.57 0.58 0.59 0.59 0.57 0.55 0.56 0.57 0.57 0.59 0.58 0.57 0.56 0.54 0.54 0.53 0.51 0.50 0.50 0.48 0.43 0.41 0.40 0.39 0.39 0.37 0.36 0.35 0.34 0.34 0.34 0.35 0.36 0.37 0.37 0.37 0.37 0.37 0.35 0.33 0.38 0.37 0.37 0.37 0.38 0.38 0.37 0.38 0.38 0.37 0.37 0.35 0.35 0.35 0.36 0.36 0.38 0.38 0.37 0.36 0.36 0.40 0.41 0.42 0.42 0.42 0.43
Wind_Speed
2 2 3 3 4 5 5 5 4 4 3 4 4 3 3 3 2 2 2 3 5 4 3 3 2 1 2 2 2 1 1 0 0 1 1 1 1 2 2 3 4 5 7 9 10 11 12 12 13 14 15 16 16 16 17 18 18 17 17 17 18 19 20 22 23 23 25 25 26 27 27 27 26 25 25 26 27 29 31 30 29 29 29 29 29 29
2 3 5 5 6 6 4 3 3 3 3 3 3 4 4 4 4 4 3 4 5 5 5 4 2 1 3 3 4 3 2 2 2 2 2 1 1 2 3 4 5 6 8 9 10 11 12 13 14 14 15 16 16 16 17 18 18 18 18 18 18 19 20 21 23 24 26 27 27 27 27 27 26 26 26 26 27 28 30 30 30 29 29 30 30 30
2 4 6 5 5 3 2 1 2 3 2 2 3 4 5 5 6 6 5 4 4 5 7 5 3 4 4 5 5 4 4 5 4 3 3 3 3 4 5 6 7 8 9 10 11 12 13 14 15 16 16 17 17 18 18 19 19 20 20 19 19 20 21 22 23 24 26 28 28 27 26 26 26 27 27 27 27 28 29 30 30 30 30 30 30 30
3 5 6 5 3 1 1 1 1 1 1 2 2 3 5 6 6 6 7 6 4 5 7 6 5 6 6 6 6 5 5 5 5 4 4 4 4 5 6 8 8 9 10 11 12 14 15 16 17 17 18 18 19 20 21 21 21 21 21 21 20 20 21 23 23 25 26 27 29 28 27 27 27 27 28 27 27 28 29 29 30 30 31 31 31 31
3 5 5 3 2 1 2 2 1 2 1 2 2 2 4 6 6 7 7 7 6 6 7 6 6 7 8 8 8 8 7 6 7 6 6 6 6 6 7 8 8 8 9 11 12 14 15 16 17 17 18 18 18 19 21 22 22 23 23 22 22 21 22 23 24 25 26 27 28 28 28 29 29 28 27 27 27 28 29 29 29 29 30 31 31 31
2 4 2 1 1 1 2 2 2 4 2 2 2 2 3 4 6 7 6 5 5 7 8 7 7 9 10 10 10 11 9 8 9 8 8 8 7 7 7 8 8 9 10 11 13 14 15 16 17 18 18 18 18 18 19 20 21 22 22 22 22 22 22 23 24 25 26 26 27 27 27 28 29 28 27 26 26 27 29 29 29 28 29 30 30 30
2 2 0 1 1 1 2 2 2 4 3 2 3 2 1 1 2 5 5 5 6 7 9 8 7 9 10 10 10 10 8 8 8 7 7 7 6 7 7 8 9 10 11 13 14 15 16 17 17 18 19 20 20 20 19 20 20 20 21 22 22 22 22 23 24 25 25 26 27 27 26 25 26 28 28 28 27 26 27 28 28 28 28 29 30 30
3 2 0 1 1 1 1 2 3 3 3 3 4 2 0 1 1 2 2 3 6 6 6 7 7 7 8 9 9 8 6 7 7 7 7 6 6 6 7 8 9 11 12 14 15 16 16 17 18 18 19 20 20 21 20 20 20 21 21 22 22 23 23 23 24 24 25 26 27 27 27 25 24 26 27 28 28 27 27 26 27 28 28 28 29 29
3 2 2 2 1 1 2 3 4 3 3 4 4 2 1 1 1 2 1 3 4 4 5 7 5 5 7 7 7 6 4 5 5 5 6 5 5 6 7 8 10 11 12 13 14 15 15 16 17 17 18 19 20 20 21 21 21 22 22 22 23 23 24 24 24 24 25 26 27 27 28 27 26 26 26 27 28 28 28 27 27 28 28 29 28 29
3 4 4 3 3 3 3 4 4 3 4 5 3 2 3 3 3 3 2 3 3 3 5 7 5 3 4 5 5 5 4 4 5 5 5 5 5 5 7 8 9 10 12 13 14 14 15 15 16 16 17 18 19 19 20 21 21 22 23 23 24 24 25 25 25 25 25 26 27 27 27 28 27 27 27 27 29 29 28 28 28 28 28 29 29 29
3 3 3 3 3 4 4 4 3 3 4 4 2 2 3 4 4 3 3 2 2 4 6 6 5 4 3 5 5 5 4 5 5 5 5 5 5 6 7 8 9 10 12 13 14 14 15 15 15 16 17 18 19 19 20 20 20 20 22 23 24 25 25 25 26 26 26 26 27 28 27 28 28 28 28 28 29 31 30 29 28 29 29 29 29 30
2 2 2 3 3 3 3 3 3 4 3 2 2 2 2 3 3 2 3 3 2 4 5 5 5 3 4 6 6 5 5 4 4 4 5 5 6 7 8 9 10 11 12 13 14 14 14 15 15 16 17 19 19 20 20 19 19 19 20 22 24 25 26 26 26 27 27 27 27 28 27 28 29 29 29 29 29 31 32 30 28 28 29 29 29 30
2 3 3 3 2 1 2 3 4 4 3 2 2 1 2 3 3 3 4 3 2 4 4 5 5 3 5 6 6 5 5 5 4 4 4 5 6 8 9 10 11 12 13 14 14 14 15 15 16 17 18 19 20 21 20 19 19 19 20 21 23 25 26 27 27 27 28 28 28 28 28 28 29 29 30 30 31 31 32 31 30 30 29 29 30 30
3 3 3 2 2 2 1 2 3 4 3 3 2 1 2 3 3 4 5 4 3 5 4 4 4 4 5 6 6 5 5 5 4 4 4 5 7 9 10 11 12 13 13 14 14 14 15 16 17 18 19 20 21 21 21 20 19 19 19 20 21 23 25 26 27 28 28 29 29 28 28 28 28 30 30 31 32 32 32 32 32 32 31 30 30 30
2 4 4 3 4 4 2 3 4 4 4 4 3 2 2 3 3 4 5 4 4 4 3 3 4 5 6 6 6 5 4 4 4 4 5 6 8 9 10 11 13 14 14 15 15 15 16 17 18 19 19 21 21 21 21 20 19 19 19 19 20 21 22 24 26 28 28 29 29 29 29 29 28 29 30 31 32 33 33 33 33 32 32 31 30 30
2 4 6 5 5 5 4 5 5 4 4 4 3 2 3 4 3 4 5 5 4 4 5 5 6 7 7 7 6 5 4 4 4 5 7 8 10 10 11 12 14 15 15 16 16 16 16 18 19 19 20 21 21 21 21 21 21 20 20 20 20 20 20 22 24 26 27 28 29 29 29 29 29 29 30 30 31 32 33 34 34 33 32 32 31 30
1 4 5 5 5 5 5 5 4 4 5 5 4 4 6 5 3 4 5 5 3 4 6 6 6 7 7 7 7 6 6 6 6 8 9 10 11 11 12 13 15 16 16 16 16 16 17 18 19 20 20 21 21 21 22 22 22 21 20 20 20 20 20 20 22 23 25 26 28 29 30 30 30 30 30 30 31 32 33 34 34 34 33 33 32 31
1 2 4 3 4 5 4 4 4 3 4 4 5 6 6 4 4 4 5 5 5 5 7 7 7 8 7 8 8 7 7 9 10 11 11 12 12 12 14 15 16 17 16 16 15 16 17 18 19 20 20 21 21 21 22 23 22 21 20 19 19 19 19 20 21 21 22 24 25 27 28 30 31 31 31 31 31 31 32 33 34 34 34 33 32 32
1 2 4 3 3 5 4 3 4 4 4 3 4 5 4 4 5 6 5 6 6 6 7 8 8 9 9 9 9 9 10 11 12 13 14 14 13 13 15 16 17 17 16 16 16 17 18 19 19 20 21 21 21 21 22 22 22 20 19 18 18 18 18 19 20 20 21 22 23 24 25 27 29 30 30 30 31 32 32 32 33 34 34 33 33 33
1 1 4 4 4 4 4 3 3 5 5 4 4 4 4 4 5 6 6 6 6 7 7 8 9 10 10 11 10 11 12 12 13 15 15 14 14 14 16 17 17 17 16 16 16 17 18 19 19 20 21 21 21 21 22 22 21 19 17 17 17 17 17 18 18 19 21 22 22 22 23 24 26 27 28 28 29 31 31 31 32 32 32 33 33 33
2 1 3 5 4 3 3 3 3 4 5 4 5 5 5 5 5 5 6 6 5 6 7 7 9 11 11 11 10 11 13 14 14 15 14 14 14 15 16 17 17 16 16 16 16 17 18 18 19 20 21 21 21 22 22 22 20 17 15 15 16 16 16 17 18 18 20 21 22 22 23 24 25 27 27 27 28 29 30 30 30 31 31 31 32 32
2 1 2 3 4 2 4 4 3 4 4 4 4 5 5 5 5 5 6 7 6 6 7 7 9 11 11 10 10 11 13 14 14 13 13 14 14 16 17 17 16 15 15 16 16 17 17 18 19 20 21 21 21 22 22 20 18 16 14 15 16 17 17 18 18 19 20 21 22 22 23 24 25 26 27 27 28 28 28 29 29 30 32 32 32 32
1 1 1 2 3 3 4 4 3 4 4 4 4 5 4 4 4 4 6 8 7 8 8 7 8 10 10 10 10 11 12 12 12 12 12 13 14 16 16 16 15 15 15 16 16 16 17 18 19 20 20 21 21 22 22 19 17 15 14 15 16 17 18 18 18 18 19 20 21 22 22 23 24 25 27 27 28 28 29 29 29 29 31 32 32 32
1 2 2 2 3 3 4 4 4 4 3 3 5 5 4 5 5 5 6 7 8 8 8 7 8 10 10 10 10 10 11 11 11 11 10 11 13 15 15 15 15 14 15 16 16 16 16 17 19 19 20 21 21 22 21 19 16 15 14 15 16 17 17 17 16 16 17 18 20 22 23 23 23 25 26 27 28 29 29 29 29 29 30 30 32 32
1 1 1 2 3 3 4 4 5 5 4 3 5 6 5 5 6 6 7 7 7 8 7 6 8 9 9 10 10 10 10 9 10 9 9 10 12 13 14 14 13 14 15 15 16 16 16 17 18 19 20 21 21 22 21 19 17 15 14 15 15 16 17 17 15 14 15 16 18 20 23 23 23 24 25 26 28 29 29 29 30 30 30 30 32 32
1 1 1 1 1 2 2 3 4 5 5 5 5 6 6 5 6 7 7 7 7 8 6 6 8 9 9 9 10 11 9 9 9 9 9 10 11 12 13 13 12 13 14 15 16 15 15 16 17 18 19 20 21 21 20 18 17 16 15 14 15 15 16 16 15 13 14 15 15 17 20 22 22 23 24 25 26 28 28 29 29 30 30 31 32 33
1 2 1 0 1 2 3 4 5 4 5 6 6 7 7 6 6 6 6 7 7 7 7 8 7 7 9 10 10 10 9 9 9 9 9 10 11 12 12 11 11 12 13 15 15 14 15 15 16 17 19 20 20 20 20 18 17 17 15 14 14 15 15 15 15 13 12 13 14 15 17 19 20 21 22 24 25 26 27 28 28 29 30 31 32 33
2 2 2 2 3 4 4 5 6 5 5 6 7 7 7 7 6 6 6 7 6 5 7 8 7 6 9 9 8 9 9 9 10 9 9 10 10 11 11 10 11 12 13 15 15 14 14 14 15 16 18 19 19 20 19 17 17 17 15 14 15 15 15 15 14 14 12 12 12 13 15 17 18 19 21 22 23 24 26 27 27 28 29 30 31 32
1 2 3 3 4 5 5 6 6 6 6 6 7 7 7 7 6 6 7 7 5 5 7 7 6 7 8 8 8 8 8 9 9 9 9 9 10 10 10 10 11 12 13 15 14 13 13 13 14 15 16 18 19 19 19 18 17 16 14 13 14 15 15 15 15 14 13 12 12 12 13 14 16 17 19 20 22 23 24 25 26 28 29 30 31 32
1 2 4 3 5 6 6 6 6 6 7 7 7 7 7 7 6 6 7 6 4 5 6 6 6 7 7 7 7 8 7 7 8 8 8 9 10 10 10 11 11 13 14 15 14 13 12 13 14 15 15 17 18 18 19 18 18 16 14 13 14 15 15 15 15 15 14 13 12 12 12 13 14 15 16 18 19 21 22 24 25 27 28 29 31 31
2 4 4 3 5 7 6 6 6 7 8 8 8 7 7 7 7 6 7 5 5 6 6 5 6 8 7 6 7 7 7 7 7 7 8 10 10 10 10 11 12 13 14 14 14 12 12 13 13 14 15 16 17 17 18 18 18 17 14 13 13 14 14 15 14 15 14 12 12 11 12 12 13 14 14 16 17 19 20 22 24 25 27 28 30 30
3 5 5 4 5 7 6 6 8 9 9 8 8 8 7 6 6 6 6 5 5 5 5 5 6 7 7 6 6 7 7 6 6 7 8 10 10 10 10 11 12 13 13 14 13 11 12 13 13 14 15 15 16 16 17 18 19 17 15 14 14 13 14 14 14 14 12 10 9 9 10 11 11 12 13 14 16 17 19 21 22 24 25 27 28 29
4 5 6 5 6 8 7 7 8 9 8 8 8 7 6 5 5 6 6 7 6 4 4 6 7 6 6 5 5 6 6 6 7 8 9 10 10 10 10 11 12 13 13 13 12 11 12 13 13 14 15 15 15 15 17 18 18 17 16 15 14 13 13 14 14 13 11 8 6 6 7 9 10 10 11 13 14 15 17 19 20 22 23 25 27 28
5 5 6 6 6 8 9 9 8 8 7 7 7 6 5 5 5 5 6 6 6 5 5 6 6 5 5 4 4 5 6 6 6 8 9 9 9 10 10 11 11 13 13 12 11 11 12 12 13 14 14 14 14 15 16 17 18 17 16 15 14 13 13 13 13 12 11 8 5 5 6 7 8 9 10 11 12 14 15 17 18 20 22 23 25 27
7 6 7 7 7 8 9 8 8 7 7 7 8 8 7 6 5 6 7 6 6 6 6 6 6 5 5 5 5 5 5 6 7 8 8 8 8 9 10 10 11 12 12 11 11 12 12 12 13 14 14 14 15 15 16 17 17 16 16 15 15 14 13 12 12 12 10 8 6 6 7 7 8 9 10 11 12 13 14 16 17 19 20 21 23 24
7 7 8 8 7 8 8 7 7 8 9 9 10 10 8 6 5 5 7 8 7 7 6 6 6 6 5 5 5 4 4 6 7 8 9 8 9 9 9 10 11 11 10 10 11 12 12 12 13 14 14 14 15 16 16 16 16 16 15 15 15 15 14 13 12 12 11 9 8 8 8 9 10 11 11 12 12 13 14 15 16 17 19 20 21 22
7 7 8 9 8 8 8 8 9 11 12 11 10 9 8 7 6 5 7 9 8 7 6 6 6 6 5 5 5 4 5 6 8 9 10 9 9 9 9 9 10 9 9 10 11 12 12 12 13 14 14 15 15 16 16 16 16 15 15 15 15 15 14 14 13 12 12 10 10 9 10 10 11 12 12 13 13 13 14 15 15 16 17 18 19 20
7 8 8 8 8 8 8 9 10 10 11 11 11 10 9 7 6 6 7 9 9 8 7 5 5 5 5 5 5 5 6 8 9 10 10 10 10 9 9 10 9 9 10 11 11 12 12 12 13 13 14 15 15 16 16 16 16 15 15 15 15 15 14 14 14 13 12 11 10 10 10 11 11 12 12 13 13 13 14 15 15 16 17 17 18 19
8 7 7 8 9 9 9 9 9 9 11 11 11 11 9 7 6 6 8 10 10 8 7 5 5 6 6 6 7 7 8 9 11 11 10 10 10 10 10 10 10 10 11 11 11 11 12 13 13 14 14 14 15 16 16 15 15 15 16 16 15 15 15 14 14 14 13 12 11 11 11 11 11 12 12 13 13 13 14 14 15 16 16 17 18 20
8 8 8 9 11 11 10 11 11 11 12 11 11 10 9 7 6 7 9 11 10 8 7 5 5 6 7 7 8 8 8 10 11 11 10 10 10 10 10 10 11 11 11 11 11 11 12 13 13 14 14 14 15 15 16 15 15 16 16 16 15 15 15 15 15 14 13 13 12 12 13 12 12 12 13 13 13 14 14 15 15 15 16 17 18 20
9 10 10 11 12 12 12 12 13 13 13 12 11 10 8 7 7 8 10 11 10 9 8 7 7 8 8 9 9 9 9 10 10 10 10 10 10 11 10 11 11 11 11 11 11 12 12 13 13 13 13 13 14 15 15 15 15 16 16 16 15 15 15 15 15 14 14 13 13 14 14 13 13 14 14 13 13 13 14 14 15 15 16 17 18 19
10 11 11 12 13 13 13 13 14 14 14 11 9 8 8 8 10 11 11 11 9 9 9 9 9 9 9 10 10 10 10 10 10 10 10 10 10 11 10 11 11 11 11 11 12 12 12 13 12 12 13 13 14 14 14 14 15 16 16 16 15 15 15 15 15 15 14 14 14 15 14 14 14 14 14 14 14 14 14 14 14 15 16 17 18 19
10 11 12 12 12 12 12 13 13 14 13 10 7 9 10 11 12 12 11 11 10 10 10 10 11 11 10 11 11 10 9 10 10 10 10 11 11 11 10 11 11 11 11 12 12 12 12 12 12 12 12 13 13 13 13 14 15 15 16 15 15 15 15 15 15 15 14 15 16 16 15 15 15 15 14 15 15 15 15 15 15 15 16 17 18 18
11 11 12 13 12 11 12 13 13 14 13 10 9 11 13 13 13 12 11 11 12 12 12 12 12 11 11 11 11 10 10 10 11 11 11 11 11 11 10 11 11 11 11 12 12 12 12 12 12 12 12 13 13 13 13 13 14 15 16 15 15 15 15 15 15 15 15 16 16 16 16 16 16 15 15 15 15 15 15 15 15 15 16 17 17 18
12 11 12 12 13 13 13 15 16 15 13 12 13 14 14 14 14 12 12 13 13 13 13 12 12 12 11 11 11 11 11 11 11 11 11 12 11 11 10 11 11 11 11 12 12 12 12 12 12 12 12 13 13 13 13 13 13 15 16 15 15 15 15 15 15 15 15 16 17 16 16 16 16 16 16 16 16 15 15 16 16 16 16 17 17 18
12 12 12 12 14 15 15 15 15 15 14 14 15 14 14 14 13 13 13 14 14 14 13 13 12 12 11 11 11 11 12 12 12 12 12 12 11 11 11 11 11 11 12 12 12 12 12 12 12 12 12 13 13 13 13 13 13 15 16 15 15 15 15 15 15 15 16 17 17 17 17 17 17 17 17 17 16 16 16 16 16 17 17 17 17 18
13 13 13 14 14 15 14 14 14 14 15 16 16 15 14 14 14 14 14 14 14 14 13 12 12 11 11 11 11 11 12 12 12 12 12 12 11 11 11 11 11 12 12 12 12 12 12 12 12 12 12 12 13 13 13 13 14 15 15 15 15 15 15 15 15 16 16 17 17 18 18 18 18 18 18 18 17 17 17 17 17 17 18 18 18 18
14 14 14 15 15 15 15 16 17 16 17 16 16 16 16 15 15 15 15 14 14 13 13 12 12 11 11 12 12 12 12 12 12 12 12 12 12 11 11 11 12 12 12 12 12 12 12 12 12 12 12 12 13 13 13 13 14 15 15 15 16 16 16 16 16 16 17 18 18 18 18 18 19 19 19 19 19 19 18 18 18 18 18 18 19 19
15 16 15 15 16 16 16 17 16 16 16 16 16 16 17 16 15 15 15 14 14 13 13 13 13 13 13 13 12 12 12 13 13 12 12 12 12 12 11 12 12 12 13 13 12 12 12 12 12 12 12 12 13 14 14 14 15 15 15 16 16 16 17 17 17 17 17 18 19 19 19 19 19 19 19 19 20 20 19 19 19 18 18 18 19 19
16 17 15 15 16 16 16 15 15 14 15 15 15 15 16 15 15 14 14 14 14 14 14 14 14 14 14 13 13 12 13 14 14 13 13 13 13 12 12 12 12 12 13 13 13 12 12 13 13 13 13 13 14 14 14 14 15 16 16 16 17 17 17 18 18 18 18 19 19 20 20 20 20 20 19 19 20 20 20 19 19 19 19 19 19 19
17 16 15 15 16 16 16 17 17 16 16 16 15 14 14 13 13 13 14 15 15 15 15 15 15 15 14 14 13 13 13 14 14 14 13 13 13 12 12 12 12 13 13 13 13 13 13 13 14 14 13 14 14 14 14 14 15 16 16 17 17 18 18 18 19 19 19 20 20 21 21 20 20 20 20 20 20 20 20 20 20 20 20 20 20 20
Wind_Direction
193 200 225 213 230 242 233 225 227 236 240 238 222 210 207 187 199 219 213 225 203 191 213 184 148 203 237 249 249 235 61 45 147 142 178 187 234 282 302 305 300 285 276 277 281 281 277 274 274 272 272 274 274 272 273 275 275 275 274 269 262 257 252 249 246 243 240 237 235 233 232 232 233 234 233 231 229 227 225 226 226 227 228 228 229 229
196 202 237 232 232 239 244 255 272 278 267 241 210 199 206 199 214 229 229 244 216 200 221 204 153 209 231 244 254 254 268 260 241 224 233 241 272 301 318 318 312 302 292 289 289 289 286 283 280 277 275 276 275 273 273 273 273 274 276 273 266 258 253 250 247 244 240 238 237 236 235 233 232 232 231 231 231 228 226 227 228 229 230 230 231 231
235 229 243 234 229 243 257 275 298 288 258 215 206 198 220 228 230 242 246 248 225 214 230 224 196 217 236 248 256 259 252 245 247 248 246 254 274 290 304 311 311 308 304 300 298 297 295 293 290 286 282 279 276 275 276 276 274 274 275 276 270 260 254 251 249 245 241 239 238 238 238 235 232 232 231 231 231 230 229 229 230 232 233 232 232 231
225 239 245 236 238 279 267 265 301 291 223 195 199 197 230 239 229 239 249 253 249 232 231 227 216 223 241 253 259 262 251 244 253 258 258 267 277 286 294 299 304 306 305 304 304 302 299 296 294 291 288 284 280 278 279 279 277 275 274 274 271 262 255 252 250 246 243 241 240 240 238 236 235 234 232 230 231 230 230 231 232 235 235 234 232 232
215 239 250 251 260 239 226 254 197 170 204 230 215 196 228 239 230 234 245 247 248 249 242 237 238 242 248 254 259 261 257 256 260 263 270 276 279 289 299 301 304 304 302 304 306 305 302 299 296 294 292 290 287 284 282 280 278 275 273 272 270 264 257 253 251 248 245 243 242 240 239 239 238 237 234 231 231 231 231 231 232 234 235 233 232 232
231 254 257 238 254 208 188 219 199 182 191 254 241 209 214 234 242 244 248 245 243 251 249 241 243 251 254 257 260 261 260 263 266 267 269 275 281 288 296 301 303 305 303 304 305 305 305 302 299 296 294 293 292 290 286 282 278 276 273 271 269 264 258 255 252 250 248 245 244 243 242 242 241 238 235 233 233 233 233 233 232 232 233 231 231 232
248 279 260 148 181 147 187 229 227 189 176 234 236 206 192 239 262 250 243 239 236 242 251 247 238 248 256 258 263 266 264 268 275 277 274 278 285 288 294 299 302 305 306 305 305 305 305 304 301 297 294 292 291 290 287 282 279 277 274 270 267 263 259 256 253 250 250 247 245 243 243 245 245 241 237 235 235 235 233 233 231 230 231 231 231 231
243 269 278 131 136 118 184 228 227 191 178 229 234 212 32 36 9 254 236 238 236 238 260 260 237 241 251 249 259 268 268 276 284 285 282 285 290 294 300 303 305 306 307 308 307 306 306 305 303 299 296 293 291 290 288 283 279 276 274 270 266 262 259 258 255 252 250 248 246 244 243 246 247 243 239 235 235 234 233 233 231 230 230 231 231 230
238 231 212 182 185 204 215 221 221 204 202 228 231 233 283 303 230 245 264 261 249 244 264 264 244 241 245 242 256 269 269 281 287 284 285 290 297 301 305 308 309 310 312 314 314 313 313 311 309 305 302 299 296 293 290 286 280 275 271 268 266 263 260 258 256 253 252 249 247 246 245 245 246 243 239 236 234 232 232 234 234 232 231 232 231 230
230 223 212 188 196 220 233 244 241 229 231 235 235 260 295 304 282 264 272 268 266 261 253 248 230 219 239 242 253 270 273 271 271 276 287 299 306 303 304 309 311 313 317 319 320 320 319 317 316 314 311 308 304 300 295 289 284 278 271 267 265 263 260 258 256 254 253 251 248 247 245 245 245 242 239 237 234 231 233 234 234 233 232 232 232 232
251 230 205 190 209 223 233 251 247 235 240 244 258 293 297 302 296 281 278 275 279 277 256 232 210 199 235 249 249 259 260 253 258 275 291 303 310 306 305 309 312 314 317 319 320 322 321 320 319 318 317 315 312 308 302 295 290 283 275 269 265 262 259 257 256 254 254 252 250 247 246 244 243 242 239 237 235 232 233 234 234 234 233 233 233 233
280 230 218 232 236 241 246 249 241 235 243 254 274 281 270 284 302 296 289 290 269 274 260 223 206 207 240 250 249 252 254 253 261 275 290 302 308 309 309 309 313 316 317 319 319 319 321 321 319 319 318 316 315 312 307 301 295 289 281 273 267 263 260 257 255 255 254 253 251 249 247 244 242 241 239 237 235 233 233 234 235 235 234 234 234 234
258 229 240 246 240 267 268 250 248 245 258 294 300 276 250 275 298 281 278 281 255 271 260 208 206 249 258 250 244 247 257 262 264 270 286 300 303 307 309 310 315 318 319 320 320 319 320 320 319 319 318 317 316 314 310 304 298 293 286 279 272 265 261 258 255 255 254 252 251 250 247 245 242 241 239 237 236 235 234 234 235 236 235 235 234 233
250 244 253 241 242 288 303 242 246 247 268 297 290 248 247 265 282 263 264 269 257 275 265 207 219 263 266 261 249 247 258 255 258 273 287 299 301 304 308 312 316 318 318 320 321 319 318 318 319 319 319 319 317 315 312 307 302 297 291 285 279 270 263 259 256 255 254 251 250 249 248 245 242 240 240 238 237 237 236 236 236 236 236 236 234 232
223 232 240 231 244 271 280 245 237 239 260 277 265 255 256 245 242 244 249 252 249 262 258 237 254 251 251 264 256 246 257 256 264 281 290 299 302 306 312 315 317 318 318 319 320 319 317 318 320 319 319 320 318 316 313 309 304 301 295 289 285 277 268 262 258 256 254 252 250 249 247 245 242 240 240 239 239 238 237 237 237 237 237 236 235 233
218 233 239 242 249 257 267 265 252 245 260 270 268 278 274 255 245 248 249 242 232 249 260 256 261 253 251 268 265 257 272 275 278 286 292 298 300 307 312 313 316 318 317 317 318 319 320 321 321 320 320 321 319 316 314 310 306 302 297 292 288 283 274 267 261 259 256 252 249 248 246 244 242 240 239 239 239 239 239 238 237 237 237 236 236 235
264 253 250 258 263 253 259 270 259 242 254 268 275 270 267 262 250 252 261 262 249 262 270 262 259 263 266 274 273 271 283 292 292 287 290 295 300 307 310 311 315 317 315 315 316 319 321 322 321 321 322 323 322 319 316 312 308 302 298 294 290 286 279 272 265 261 257 252 250 249 246 243 241 239 239 239 239 239 239 238 238 237 237 237 237 237
233 274 267 275 279 261 266 282 268 253 258 268 269 263 267 279 277 262 262 278 282 272 271 265 255 258 264 270 273 274 283 291 289 286 291 296 301 306 309 310 312 314 314 315 318 320 322 322 321 322 324 325 324 322 320 317 312 304 298 294 291 287 283 278 270 263 258 252 250 249 246 243 241 239 239 239 239 239 239 238 237 236 236 237 237 237
256 293 274 283 292 272 282 298 276 279 290 276 264 263 267 272 277 277 267 268 275 274 276 274 266 261 259 263 267 271 278 284 285 289 294 297 298 303 306 307 309 311 313 316 319 320 321 323 323 323 325 327 326 324 322 322 318 309 299 295 293 289 285 281 273 265 258 252 249 248 245 242 239 239 239 240 239 239 239 239 237 236 236 236 237 238
284 273 263 278 294 285 293 302 272 278 291 292 288 289 283 263 264 274 272 265 264 269 275 276 273 269 262 262 265 269 277 282 284 290 293 292 295 299 301 304 307 309 310 314 318 318 320 324 324 324 327 328 328 326 324 325 323 315 304 298 298 295 289 284 278 267 258 253 248 246 243 240 238 238 238 239 239 238 238 238 237 236 236 236 237 238
303 266 262 282 301 301 281 276 272 278 285 293 299 299 294 285 279 278 279 277 270 267 269 270 274 272 266 266 268 270 277 280 282 288 290 290 293 297 299 303 307 308 309 313 316 317 319 323 324 326 328 330 331 329 328 328 327 321 312 306 304 301 294 288 282 271 261 254 248 244 243 240 239 238 238 239 237 237 237 237 236 236 235 236 236 237
300 275 270 287 309 302 263 265 271 272 274 277 286 291 289 288 290 285 282 285 284 277 269 268 274 273 269 270 271 272 277 282 284 286 287 289 293 297 299 303 306 307 308 311 314 315 318 323 325 326 330 332 333 334 332 330 329 325 319 314 311 308 302 294 285 274 263 254 247 244 242 240 239 238 238 239 238 236 236 237 236 236 235 236 236 237
277 1 328 285 291 273 260 273 282 275 277 278 282 289 290 289 290 282 278 283 290 290 281 277 279 274 271 274 275 276 281 286 287 287 288 290 293 297 300 304 306 306 308 311 313 314 317 322 325 327 331 334 335 336 336 331 328 327 324 320 317 316 311 301 289 277 265 255 247 244 242 240 240 240 239 239 239 237 237 237 237 237 236 237 237 238
326 11 352 303 303 294 282 300 314 311 315 306 295 300 304 295 290 283 277 281 290 291 285 287 286 276 274 280 280 280 287 295 296 294 294 294 295 299 303 306 306 305 308 312 314 315 317 322 326 329 332 335 335 336 337 333 328 326 326 325 323 322 320 311 297 280 268 260 250 244 243 242 241 240 240 239 239 239 238 238 238 237 237 237 238 238
332 347 3 352 343 330 316 319 326 327 331 311 298 305 307 302 305 303 297 295 293 287 281 284 282 273 275 285 289 291 300 310 308 299 294 294 297 302 306 308 308 306 310 314 316 318 319 321 325 329 332 335 335 336 337 334 329 327 326 327 326 326 324 320 309 289 272 266 257 248 245 244 242 240 239 239 239 239 239 239 238 238 238 238 238 238
328 306 356 36 12 323 305 299 302 309 314 308 304 308 308 308 310 306 303 301 291 285 285 281 275 274 281 292 298 298 302 309 306 297 294 297 301 306 310 312 311 310 314 318 320 319 319 321 324 328 333 336 336 337 338 334 331 329 326 326 327 327 326 325 319 304 282 270 263 254 247 245 244 241 240 239 239 240 240 240 240 239 239 239 239 238
338 311 299 218 238 266 273 279 286 296 302 301 301 305 306 306 310 312 310 299 286 286 290 279 268 276 287 291 295 296 297 299 298 294 295 301 306 311 316 318 315 316 319 321 323 322 320 322 324 328 334 337 338 340 340 336 333 331 327 327 327 325 325 327 324 315 297 278 269 259 250 246 245 243 240 240 240 240 240 241 241 240 240 240 240 239
357 318 286 254 265 273 269 279 292 295 291 291 295 299 302 303 308 311 305 295 291 298 294 280 267 275 285 286 286 290 295 297 296 295 296 303 311 316 321 323 323 324 325 326 327 325 323 325 326 330 336 339 341 342 342 339 336 332 329 329 330 326 323 325 325 319 305 287 275 266 255 249 247 245 242 241 241 242 242 242 242 241 241 240 240 240
34 294 277 278 291 289 282 289 297 294 288 288 288 289 295 301 302 300 300 298 297 295 287 278 269 272 281 283 279 282 289 294 299 302 304 310 315 320 326 330 330 330 330 330 330 327 327 329 329 332 336 339 342 344 344 342 339 336 332 330 333 331 326 324 322 318 307 290 278 271 262 253 249 247 245 243 243 244 244 244 243 243 242 241 241 241
353 284 279 290 304 300 293 296 306 307 296 287 284 285 291 296 295 297 303 303 296 289 284 277 274 277 280 278 276 283 290 297 308 315 317 321 322 324 330 333 332 333 332 333 333 331 330 332 333 335 337 340 343 346 346 344 343 340 336 332 333 335 333 328 323 317 307 291 279 273 267 260 253 250 248 247 246 247 247 246 245 245 245 244 242 242
313 289 285 306 314 300 292 301 314 317 307 291 288 296 299 297 295 298 305 309 306 300 293 284 286 291 288 278 280 295 305 311 318 322 323 325 326 329 334 333 331 333 332 333 335 334 332 335 338 338 339 342 344 347 347 346 345 344 341 336 335 336 338 336 331 324 312 293 278 272 269 263 257 254 252 252 251 250 251 250 249 248 247 246 245 245
293 289 296 321 315 293 291 309 312 314 318 311 304 303 299 294 296 302 306 305 301 301 299 295 297 296 292 290 298 310 317 316 310 311 319 324 326 330 333 332 330 331 330 331 335 337 336 339 341 340 341 345 347 348 349 349 348 347 345 342 338 337 339 341 341 338 329 307 281 272 269 264 260 258 257 257 256 255 254 254 252 251 249 248 248 247
275 284 288 299 302 291 292 307 310 315 324 319 308 300 291 289 298 309 311 304 298 300 295 292 294 293 293 305 313 312 313 307 301 308 317 322 325 328 330 330 329 328 329 332 336 338 338 341 342 341 343 347 350 350 350 351 352 351 350 347 343 341 341 343 347 347 344 332 303 281 274 269 267 266 266 266 265 262 260 258 256 254 253 251 250 249
268 274 277 280 291 292 294 306 314 312 307 296 295 297 291 287 286 291 301 299 292 296 298 295 297 295 292 300 304 298 298 302 307 315 319 322 327 329 329 329 327 328 331 335 337 337 339 341 342 342 345 348 349 348 348 351 354 355 355 353 350 346 344 344 348 350 349 342 323 300 289 282 278 276 275 275 273 270 268 265 262 259 257 255 254 252
263 267 274 280 286 291 299 315 316 297 281 281 296 303 299 293 283 282 297 299 285 286 297 298 294 289 284 288 291 289 294 304 314 322 325 327 329 332 332 330 329 331 334 336 335 336 338 340 342 344 346 346 346 346 346 349 352 355 357 358 356 353 350 348 348 349 348 341 327 310 299 292 285 282 282 280 278 276 274 270 268 265 261 259 258 256
257 266 275 279 282 290 298 301 293 287 287 293 301 303 302 305 307 303 305 304 291 283 287 289 287 284 281 287 292 289 293 307 319 324 326 326 327 333 335 331 330 334 336 335 336 337 338 339 342 344 345 344 344 344 344 346 349 350 353 356 357 356 354 353 351 349 347 341 332 321 310 301 294 289 286 283 281 279 277 274 272 270 267 263 260 258
257 269 276 276 277 282 283 281 286 295 300 300 298 296 293 295 299 301 302 302 297 285 279 284 288 283 281 290 292 284 293 315 324 322 321 322 323 327 329 327 330 334 334 335 338 339 339 340 342 344 343 343 344 344 344 344 345 347 349 350 352 353 353 354 353 351 348 343 336 329 321 312 304 298 292 287 284 283 281 278 276 275 272 268 265 263
262 269 269 271 278 281 280 287 295 298 297 293 289 288 289 289 292 299 303 304 301 289 276 276 281 279 283 293 292 289 304 317 317 312 313 317 319 322 324 327 330 331 330 333 337 339 339 339 341 343 342 343 345 345 345 345 345 346 347 347 348 348 348 349 350 349 348 345 340 336 329 321 314 306 298 293 290 287 285 282 280 279 276 272 270 268
270 281 275 270 278 281 279 283 286 284 287 289 288 288 287 284 295 310 307 302 300 290 277 272 275 276 278 285 293 304 313 313 308 305 307 311 313 316 321 327 330 329 329 332 334 335 335 335 337 339 340 342 345 345 346 347 347 348 347 346 346 345 344 345 345 344 344 342 340 338 334 329 324 317 308 300 294 291 289 287 285 283 280 275 273 271
266 277 275 268 273 277 277 279 282 283 286 288 287 284 280 282 300 308 298 295 297 291 279 272 273 275 276 282 295 307 308 305 304 304 305 308 311 314 319 325 328 328 329 330 330 330 331 332 334 337 338 340 342 343 345 347 349 350 348 347 347 346 345 343 341 340 340 338 337 336 334 332 329 326 320 312 303 296 292 289 288 288 286 283 279 274
264 267 268 268 272 275 274 277 283 286 287 288 284 275 272 287 296 287 282 288 291 287 283 277 275 279 280 282 291 297 298 301 304 303 303 308 313 316 320 323 324 325 326 326 325 326 327 330 332 334 336 338 339 340 342 344 347 349 349 348 349 348 346 344 342 341 340 338 337 335 333 331 329 327 325 321 314 306 299 294 292 291 290 290 288 282
265 268 268 269 273 275 274 278 285 289 289 289 285 274 271 281 282 278 285 290 283 280 285 282 280 283 281 281 287 290 294 299 303 303 303 306 310 314 318 321 323 323 324 323 322 323 324 327 329 332 334 337 339 339 340 343 346 347 346 347 348 347 346 346 345 344 343 342 341 338 334 331 328 325 324 323 321 316 310 304 299 296 294 294 295 292
266 269 271 271 273 276 277 278 286 292 289 284 286 286 281 279 279 282 289 290 282 282 286 285 284 284 281 282 287 288 290 296 298 299 301 303 307 311 314 317 319 319 320 321 321 321 322 324 327 329 332 336 338 337 338 342 344 345 344 344 343 343 343 344 345 345 346 346 344 342 339 335 331 327 324 323 322 319 316 312 308 304 301 300 300 299
276 273 274 277 277 276 275 275 281 288 283 271 274 282 276 274 280 283 282 284 285 286 287 286 285 282 279 280 283 284 287 290 292 295 299 302 305 309 310 312 314 315 317 319 319 319 322 324 325 326 329 333 335 335 336 340 342 342 342 341 340 341 341 341 342 343 345 345 344 343 341 339 336 333 328 325 322 319 317 316 313 311 308 306 305 305
277 274 275 279 280 278 277 279 282 286 279 266 269 277 273 270 278 280 278 281 284 284 285 286 283 281 281 280 281 285 287 286 287 293 297 298 301 305 306 308 310 312 313 316 318 318 320 322 323 324 326 330 332 332 333 337 339 340 340 338 338 339 339 338 339 340 341 342 341 341 340 339 338 336 333 329 326 322 319 316 315 313 312 310 309 308
275 279 280 281 284 287 288 287 287 288 280 269 270 279 279 274 275 277 278 281 283 283 285 285 281 280 282 282 284 287 287 285 287 291 293 294 298 301 303 305 307 309 312 314 316 317 318 320 321 322 324 327 329 329 331 334 336 337 337 336 336 338 337 337 338 339 339 339 338 337 336 336 335 334 333 331 329 326 323 319 316 314 312 312 312 311
277 283 283 281 283 288 290 292 292 290 283 275 272 279 285 281 276 276 278 280 282 283 285 284 280 279 281 284 286 287 286 285 286 287 289 292 295 297 300 302 305 307 309 311 312 313 316 318 320 320 322 325 327 327 329 332 334 335 335 335 336 336 336 336 337 338 338 337 336 335 334 333 331 330 329 329 329 327 325 323 320 318 315 313 313 312
279 284 283 279 280 281 281 286 290 290 288 285 278 277 281 280 277 277 279 280 280 282 283 281 278 278 282 284 284 284 285 286 286 285 286 289 292 294 297 299 301 304 306 307 309 311 313 315 317 318 319 321 324 325 326 329 332 333 333 333 334 335 335 335 334 334 335 335 335 334 332 331 330 328 327 325 325 325 324 323 322 321 319 316 314 311
275 278 277 277 280 281 280 285 291 292 293 295 290 284 283 281 277 276 278 279 279 280 280 279 279 280 283 284 283 284 285 286 287 286 284 285 289 292 294 297 300 302 303 304 305 307 310 312 313 314 314 318 321 323 323 325 328 329 329 329 330 332 332 332 332 331 332 332 332 332 331 330 329 328 326 324 323 323 322 321 321 320 319 318 315 312
273 275 275 277 280 280 278 279 285 287 287 289 290 289 289 287 282 277 275 276 277 276 275 277 279 281 282 282 282 284 284 285 287 287 284 284 287 288 291 295 298 300 301 301 302 304 307 309 310 310 310 313 318 320 320 322 324 326 326 326 327 329 329 329 329 329 329 330 330 330 329 328 328 327 325 323 321 320 320 320 319 319 318 317 316 314
269 272 273 274 275 275 274 275 279 280 280 280 282 283 285 287 285 280 276 275 275 274 273 274 276 279 281 281 279 280 283 285 286 285 284 284 283 284 288 292 294 297 299 298 299 302 305 307 308 307 307 309 313 316 318 320 323 324 324 324 325 326 327 327 326 326 327 327 327 327 327 327 326 325 324 323 320 318 317 317 317 318 318 317 317 316